period_start,C,m1,H,J0,J1,J2,J3,J4,J5,JA,JB,JC,JD,JJ,JK,JN,#
2014-04-06 00:00:58,0.10,1.11,0.00,21.89,28.37,31.21,5.88,30.83,1002.94,2036.99,3045.06,2997.35,3244.49,349.59,320.44,16.42,0000 0000 0000 0000 000000
2014-04-06 00:01:58,0.16,1.11,0.00,21.89,28.37,31.25,5.98,30.96,1002.94,2036.99,3045.02,2997.14,3244.22,349.56,320.20,16.43,0000 0000 0000 0000 000000
2014-04-06 00:02:59,0.09,1.11,0.00,21.89,28.37,31.23,6.13,31.13,1002.94,2036.99,3044.97,2997.06,3244.10,350.40,321.18,16.43,0000 0000 0000 0000 000000
2014-04-06 00:03:59,0.04,1.12,0.00,21.89,28.37,31.23,6.16,31.08,1002.94,2036.99,3044.87,2997.02,3244.04,350.22,321.01,16.44,0000 0000 0000 0000 000000
2014-04-06 00:04:59,0.03,1.12,0.00,21.89,28.37,31.22,6.07,30.79,1002.93,2036.99,3044.53,2997.00,3244.01,350.66,321.41,16.45,0000 0000 0000 0000 000000
2014-04-06 00:05:59,0.06,1.12,0.00,21.89,28.37,31.22,5.85,31.00,1002.93,2036.99,3044.22,2997.00,3244.00,349.22,320.09,16.45,0000 0000 0000 0000 000000
2014-04-06 00:07:00,0.04,1.12,0.00,21.89,28.37,31.22,5.98,31.17,1002.93,2036.99,3044.08,2996.98,3244.00,350.37,321.14,16.46,0000 0000 0000 0000 000000
2014-04-06 00:08:00,0.02,1.12,0.00,21.89,28.37,31.22,5.93,31.13,1002.92,2036.99,3044.03,2996.85,3243.91,350.61,321.02,16.46,0000 0000 0000 0000 000000
2014-04-06 00:09:00,0.06,1.12,0.00,21.90,28.37,31.22,6.01,31.29,1002.89,2036.99,3044.00,2996.54,3243.63,349.46,320.29,16.47,0000 0000 0000 0000 000000
2014-04-06 00:10:00,0.11,1.12,0.00,21.90,28.37,31.22,5.95,30.67,1002.89,2036.99,3043.90,2996.25,3243.30,350.63,321.36,16.48,0000 0000 0000 0000 000000
2014-04-06 00:11:01,0.13,1.12,0.00,21.90,28.37,31.20,6.02,31.21,1002.88,2036.99,3043.44,2996.09,3243.11,350.10,321.02,16.48,0000 0000 0000 0000 000000
2014-04-06 00:12:01,0.12,1.12,0.00,21.90,28.37,31.24,6.08,31.13,1002.85,2036.99,3043.18,2996.03,3243.04,350.00,321.12,16.49,0000 0000 0000 0000 000000
2014-04-06 00:13:01,0.05,1.12,0.00,21.90,28.37,31.23,5.91,31.08,1002.86,2036.99,3043.06,2996.00,3242.98,349.70,320.51,16.49,0000 0000 0000 0000 000000
2014-04-06 00:14:01,0.02,1.12,0.00,21.89,28.37,31.22,6.05,31.08,1002.82,2036.99,3042.92,2995.88,3242.76,349.93,320.45,16.50,0000 0000 0000 0000 000000
2014-04-06 00:15:02,0.09,1.12,0.00,21.89,28.37,31.19,6.05,31.42,1002.75,2036.99,3042.49,2995.54,3242.42,350.53,321.58,16.50,0000 0000 0000 0000 000000
2014-04-06 00:16:02,0.21,1.12,0.00,21.89,28.37,31.21,5.89,30.79,1002.69,2036.99,3042.18,2995.20,3242.16,348.86,319.68,16.51,0000 0000 0000 0000 000000
2014-04-06 00:17:02,0.15,1.12,0.00,21.89,28.37,31.21,6.01,31.29,1002.63,2036.99,3042.08,2995.07,3242.05,350.19,320.88,16.52,0000 0000 0000 0000 000000
2014-04-06 00:18:02,0.05,1.12,0.00,21.89,28.37,31.21,6.10,31.38,1002.53,2036.99,3042.01,2995.02,3242.01,350.71,321.68,16.52,0000 0000 0000 0000 000000
2014-04-06 00:19:03,0.02,1.12,0.00,21.89,28.37,31.21,5.97,31.29,1002.48,2036.99,3041.75,2994.98,3241.81,349.43,320.14,16.53,0000 0000 0000 0000 000000
2014-04-06 00:20:03,0.09,1.12,0.00,21.89,28.37,31.22,6.03,31.04,1002.48,2036.99,3041.33,2994.71,3241.42,350.06,320.71,16.53,0000 0000 0000 0000 000000
2014-04-06 00:21:03,0.19,1.12,0.00,21.89,28.37,31.20,5.89,31.21,1002.47,2036.99,3041.12,2994.34,3241.16,350.10,320.31,16.54,0000 0000 0000 0000 000000
2014-04-06 00:22:03,0.13,1.12,0.00,21.91,28.37,31.22,6.04,31.08,1002.47,2036.99,3041.04,2994.15,3241.06,349.92,320.83,16.55,0000 0000 0000 0000 000000
2014-04-06 00:23:03,0.07,1.13,0.00,21.91,28.37,31.20,6.02,31.13,1002.47,2036.99,3040.98,2994.05,3241.01,350.41,320.82,16.55,0000 0000 0000 0000 000000
2014-04-06 00:24:04,0.03,1.13,0.00,21.90,28.37,31.22,5.93,31.08,1002.46,2037.00,3040.95,2994.02,3241.00,349.38,320.03,16.56,0000 0000 0000 0000 000000
2014-04-06 00:25:04,0.02,1.13,0.00,21.92,28.37,31.22,5.99,31.13,1002.46,2037.00,3040.67,2993.99,3240.85,350.10,320.72,16.56,0000 0000 0000 0000 000000
2014-04-06 00:26:04,0.09,1.13,0.00,21.91,28.37,31.22,5.87,30.96,1002.46,2037.00,3040.28,2993.92,3240.40,349.58,320.25,16.57,0000 0000 0000 0000 000000
2014-04-06 00:27:05,0.13,1.13,0.00,21.91,28.37,31.22,5.99,31.04,1002.46,2037.00,3040.11,2993.87,3240.15,349.51,320.18,16.57,0000 0000 0000 0000 000000
2014-04-06 00:28:05,0.04,1.13,0.00,21.90,28.37,31.21,5.98,31.25,1002.46,2037.00,3040.05,2993.63,3240.05,350.37,320.99,16.58,0000 0000 0000 0000 000000
2014-04-06 00:29:05,0.10,1.13,0.00,21.89,28.37,31.21,6.03,31.13,1002.46,2037.00,3040.01,2993.28,3240.02,349.76,320.43,16.59,0000 0000 0000 0000 000000
2014-04-06 00:30:05,0.08,1.13,0.00,21.89,28.37,31.22,6.09,31.29,1002.46,2037.00,3039.98,2993.12,3240.00,349.86,320.52,16.59,0000 0000 0000 0000 000000
2014-04-06 00:31:05,0.04,1.13,0.00,21.89,28.37,31.21,6.16,31.38,1002.46,2037.00,3039.89,2993.04,3239.99,351.12,321.75,16.60,0000 0000 0000 0000 000000
2014-04-06 00:32:06,0.03,1.13,0.00,21.89,28.37,31.22,5.86,31.29,1002.46,2037.00,3039.51,2993.01,3239.90,349.35,320.03,16.60,0000 0000 0000 0000 000000
2014-04-06 00:33:06,0.09,1.13,0.00,21.89,28.37,31.22,5.98,31.17,1002.46,2037.00,3039.21,2992.99,3239.52,349.67,320.83,16.61,0000 0000 0000 0000 000000
2014-04-06 00:34:06,0.10,1.13,0.00,21.89,28.37,31.25,5.95,31.04,1002.46,2036.99,3039.08,2992.93,3239.20,349.90,320.56,16.62,0000 0000 0000 0000 000000
2014-04-06 00:35:06,0.06,1.13,0.00,21.90,28.37,31.25,6.06,31.08,1002.46,2036.99,3039.03,2992.85,3239.08,350.32,320.94,16.62,0000 0000 0000 0000 000000
2014-04-06 00:36:07,0.04,1.13,0.00,21.90,28.37,31.24,5.98,31.13,1002.46,2036.99,3038.98,2992.69,3239.04,350.39,321.01,16.63,0000 0000 0000 0000 000000
2014-04-06 00:37:07,0.06,1.13,0.00,21.90,28.37,31.24,6.11,31.17,1002.47,2036.99,3038.70,2992.35,3239.01,350.80,321.37,16.63,0000 0000 0000 0000 000000
2014-04-06 00:38:07,0.14,1.13,0.00,21.91,28.37,31.24,5.96,31.17,1002.46,2036.99,3038.29,2992.15,3238.99,350.13,320.75,16.64,0000 0000 0000 0000 000000
2014-04-06 00:39:07,0.10,1.13,0.00,21.91,28.37,31.19,5.98,31.17,1002.46,2036.99,3038.11,2992.05,3238.88,350.08,321.12,16.64,0000 0000 0000 0000 000000
2014-04-06 00:40:07,0.06,1.13,0.00,21.90,28.37,31.23,6.09,30.92,1002.47,2036.99,3038.04,2992.02,3238.46,350.38,320.85,16.65,0000 0000 0000 0000 000000
2014-04-06 00:41:08,0.08,1.13,0.00,21.90,28.37,31.22,6.07,31.21,1002.46,2036.99,3037.96,2992.00,3238.18,350.16,320.75,16.66,0000 0000 0000 0000 000000
2014-04-06 00:42:08,0.04,1.13,0.00,21.90,28.37,31.21,5.91,31.17,1002.46,2036.99,3037.69,2991.95,3238.07,350.70,321.29,16.66,0000 0000 0000 0000 000000
2014-04-06 00:43:08,0.08,1.13,0.00,21.90,28.37,31.25,6.05,31.04,1002.46,2036.99,3037.34,2991.74,3238.02,349.72,320.39,16.67,0000 0000 0000 0000 000000
2014-04-06 00:44:08,0.11,1.13,0.00,21.90,28.37,31.23,6.13,31.08,1002.46,2036.99,3037.14,2991.42,3237.99,350.16,320.43,16.67,0000 0000 0000 0000 000000
2014-04-06 00:45:09,0.11,1.14,0.00,21.92,28.37,31.23,5.91,31.17,1002.46,2036.99,3037.05,2991.20,3237.98,349.75,320.08,16.68,0000 0000 0000 0000 000000
2014-04-06 00:46:09,0.05,1.14,0.00,21.92,28.37,31.21,6.04,30.88,1002.46,2036.99,3037.01,2991.08,3237.92,349.28,319.96,16.69,0000 0000 0000 0000 000000
2014-04-06 00:47:09,0.04,1.14,0.00,21.92,28.37,31.20,6.10,31.04,1002.46,2036.99,3036.92,2991.03,3237.54,350.36,320.97,16.69,0000 0000 0000 0000 000000
2014-04-06 00:48:09,0.08,1.14,0.00,21.92,28.37,31.21,6.12,31.08,1002.46,2036.99,3036.49,2990.99,3237.25,349.18,320.12,16.70,0000 0000 0000 0000 000000
2014-04-06 00:49:09,0.11,1.14,0.00,21.92,28.37,31.22,6.15,31.13,1002.46,2036.99,3036.19,2990.94,3237.09,350.88,321.43,16.70,0000 0000 0000 0000 000000
2014-04-06 00:50:09,0.07,1.14,0.00,21.92,28.37,31.21,6.19,31.08,1002.47,2036.99,3036.07,2990.78,3237.03,351.02,321.56,16.71,0000 0000 0000 0000 000000
2014-04-06 00:51:10,0.06,1.14,0.00,21.91,28.37,31.21,6.07,31.04,1002.46,2036.99,3036.02,2990.41,3236.99,350.33,320.94,16.72,0000 0000 0000 0000 000000
2014-04-06 00:52:10,0.11,1.14,0.00,21.90,28.37,31.21,6.00,30.92,1002.46,2036.99,3035.87,2990.15,3236.78,350.27,320.89,16.72,0000 0000 0000 0000 000000
2014-04-06 00:53:10,0.11,1.14,0.00,21.92,28.37,31.22,6.09,31.17,1002.47,2036.98,3035.44,2990.05,3236.37,350.82,321.39,16.73,0000 0000 0000 0000 000000
2014-04-06 00:54:11,0.14,1.14,0.00,21.92,28.37,31.20,6.13,31.04,1002.47,2036.99,3035.16,2990.01,3236.13,351.05,321.59,16.73,0000 0000 0000 0000 000000
2014-04-06 00:55:11,0.08,1.14,0.00,21.92,28.37,31.25,5.78,30.92,1002.47,2036.99,3035.06,2989.97,3236.05,348.62,319.14,16.74,0000 0000 0000 0000 000000
2014-04-06 00:56:11,0.03,1.14,0.00,21.92,28.37,31.24,6.02,31.25,1002.49,2036.99,3035.00,2989.88,3236.01,351.22,321.83,16.74,0000 0000 0000 0000 000000
2014-04-06 00:57:11,0.03,1.14,0.00,21.92,28.37,31.23,5.99,30.92,1002.49,2036.99,3034.80,2989.55,3235.95,349.64,320.30,16.75,0000 0000 0000 0000 000000
2014-04-06 00:58:12,0.13,1.14,0.00,21.93,28.37,31.21,5.90,30.96,1002.50,2036.99,3034.37,2989.22,3235.79,349.98,320.60,16.76,0000 0000 0000 0000 000000
2014-04-06 00:59:12,0.17,1.14,0.00,21.92,28.37,31.23,5.94,30.83,1002.47,2036.99,3034.14,2989.08,3235.39,349.18,319.88,16.76,0000 0000 0000 0000 000000
2014-04-06 01:00:12,0.12,1.14,0.00,21.92,28.37,31.23,5.88,31.04,1002.48,2036.99,3034.03,2989.03,3235.14,349.49,320.17,16.77,0000 0000 0000 0000 000000
2014-04-06 01:01:12,0.05,1.14,0.00,21.92,28.37,31.23,5.95,30.71,1002.48,2036.99,3033.89,2989.00,3235.05,349.47,320.14,16.77,0000 0000 0000 0000 000000
2014-04-06 01:02:12,0.03,1.14,0.00,21.93,28.37,31.23,6.02,30.83,1002.49,2036.99,3033.46,2988.88,3235.00,350.63,321.20,16.78,0000 0000 0000 0000 000000
2014-04-06 01:03:12,0.11,1.14,0.00,21.92,28.37,31.21,6.07,30.96,1002.52,2036.99,3033.19,2988.53,3234.94,350.28,320.90,16.79,0000 0000 0000 0000 000000
2014-04-06 01:04:13,0.13,1.15,0.00,21.91,28.37,31.19,5.87,30.88,1002.51,2036.99,3033.07,2988.23,3234.54,349.47,320.38,16.79,0000 0000 0000 0000 000000
2014-04-06 01:05:13,0.16,1.15,0.00,21.91,28.37,31.22,5.89,30.96,1002.48,2036.99,3032.95,2988.08,3234.22,349.00,319.22,16.80,0000 0000 0000 0000 000000
2014-04-06 01:06:13,0.09,1.15,0.00,21.90,28.37,31.22,6.16,31.08,1002.49,2036.99,3032.74,2988.03,3234.08,350.44,320.71,16.80,0000 0000 0000 0000 000000
2014-04-06 01:07:13,0.05,1.15,0.00,21.90,28.37,31.22,5.93,31.08,1002.48,2036.99,3032.37,2987.98,3234.03,350.08,320.87,16.81,0000 0000 0000 0000 000000
2014-04-06 01:08:14,0.08,1.15,0.00,21.90,28.37,31.22,5.84,31.00,1002.47,2036.99,3032.13,2987.83,3233.96,350.15,320.87,16.81,0000 0000 0000 0000 000000
2014-04-06 01:09:14,0.08,1.15,0.00,21.90,28.37,31.22,5.97,30.96,1002.47,2036.99,3032.05,2987.43,3233.58,350.02,320.88,16.82,0000 0000 0000 0000 000000
2014-04-06 01:10:14,0.17,1.15,0.00,21.90,28.37,31.21,5.82,30.83,1002.46,2036.99,3031.96,2987.15,3233.25,350.79,321.55,16.83,0000 0000 0000 0000 000000
2014-04-06 01:11:14,0.11,1.15,0.00,21.90,28.37,31.21,5.94,30.92,1002.46,2036.99,3031.56,2987.05,3233.08,349.28,319.99,16.83,0000 0000 0000 0000 000000
2014-04-06 01:12:14,0.11,1.15,0.00,21.90,28.37,31.22,6.08,31.00,1002.46,2036.99,3031.24,2987.01,3233.03,349.95,320.60,16.84,0000 0000 0000 0000 000000
2014-04-06 01:13:15,0.05,1.15,0.00,21.90,28.37,31.21,6.17,31.08,1002.46,2036.99,3031.09,2986.95,3232.97,349.60,320.29,16.84,0000 0000 0000 0000 000000
2014-04-06 01:14:15,0.03,1.15,0.00,21.90,28.37,31.24,6.11,31.08,1002.46,2036.99,3031.03,2986.86,3232.80,349.83,320.49,16.85,0000 0000 0000 0000 000000
2014-04-06 01:15:15,0.06,1.15,0.00,21.91,28.37,31.24,5.85,31.08,1002.46,2036.99,3031.00,2986.46,3232.40,349.89,320.54,16.86,0000 0000 0000 0000 000000
2014-04-06 01:16:16,0.17,1.15,0.00,21.92,28.37,31.24,5.97,31.04,1002.46,2036.99,3030.72,2986.18,3232.17,349.81,320.45,16.86,0000 0000 0000 0000 000000
2014-04-06 01:17:16,0.13,1.15,0.00,21.92,28.37,31.22,6.03,31.13,1002.46,2036.99,3030.30,2986.06,3232.06,350.33,320.93,16.87,0000 0000 0000 0000 000000
2014-04-06 01:18:16,0.10,1.15,0.00,21.92,28.37,31.20,5.90,30.96,1002.46,2036.99,3030.11,2986.02,3232.02,349.29,320.62,16.87,0000 0000 0000 0000 000000
2014-04-06 01:19:16,0.04,1.15,0.00,21.92,28.37,31.21,5.97,31.04,1002.46,2036.99,3030.03,2985.99,3231.90,349.43,320.36,16.88,0000 0000 0000 0000 000000
2014-04-06 01:20:16,0.04,1.15,0.00,21.92,28.37,31.20,5.92,30.88,1002.46,2036.99,3029.98,2985.90,3231.56,349.31,319.99,16.88,0000 0000 0000 0000 000000
2014-04-06 01:21:17,0.08,1.16,0.00,21.92,28.37,31.20,5.95,31.17,1002.46,2036.99,3029.81,2985.70,3231.32,349.83,320.47,16.89,0000 0000 0000 0000 000000
2014-04-06 01:22:17,0.13,1.16,0.00,21.92,28.37,31.21,6.06,31.08,1002.46,2036.99,3029.51,2985.41,3231.12,350.70,321.26,16.90,0000 0000 0000 0000 000000
2014-04-06 01:23:17,0.12,1.16,0.00,21.93,28.37,31.22,6.12,31.04,1002.46,2036.99,3029.21,2985.17,3231.04,350.36,321.12,16.90,0000 0000 0000 0000 000000
2014-04-06 01:24:18,0.11,1.16,0.00,21.93,28.37,31.22,6.02,30.83,1002.46,2036.99,3029.07,2985.06,3231.00,349.44,320.10,16.91,0000 0000 0000 0000 000000
2014-04-06 01:25:18,0.05,1.16,0.00,21.92,28.37,31.21,6.02,31.00,1002.46,2036.99,3028.98,2985.01,3230.92,350.00,320.84,16.91,0000 0000 0000 0000 000000
2014-04-06 01:26:18,0.04,1.16,0.00,21.92,28.37,31.21,6.06,30.79,1002.46,2036.99,3028.66,2984.98,3230.56,351.35,321.49,16.92,0000 0000 0000 0000 000000
2014-04-06 01:27:18,0.11,1.16,0.00,21.92,28.37,31.22,5.85,30.92,1002.45,2036.99,3028.36,2984.75,3230.25,349.17,320.05,16.93,0000 0000 0000 0000 000000
2014-04-06 01:28:18,0.13,1.16,0.00,21.92,28.37,31.21,5.89,30.75,1002.46,2036.99,3028.14,2984.42,3230.09,349.92,320.54,16.93,0000 0000 0000 0000 000000
2014-04-06 01:29:19,0.13,1.16,0.00,21.92,28.37,31.21,6.18,30.88,1002.46,2036.99,3028.05,2984.18,3230.03,350.49,320.88,16.94,0000 0000 0000 0000 000000
2014-04-06 01:30:19,0.07,1.16,0.00,21.92,28.37,31.21,6.04,31.04,1002.46,2036.99,3027.99,2984.07,3229.99,349.35,320.03,16.94,0000 0000 0000 0000 000000
2014-04-06 01:31:19,0.05,1.16,0.00,21.92,28.37,31.22,5.98,30.96,1002.46,2036.99,3027.67,2984.02,3229.65,350.18,320.79,16.95,0000 0000 0000 0000 000000
2014-04-06 01:32:19,0.10,1.16,0.00,21.92,28.37,31.20,6.00,31.08,1002.46,2036.99,3027.28,2983.99,3229.29,349.94,320.57,16.96,0000 0000 0000 0000 000000
2014-04-06 01:33:20,0.12,1.16,0.00,21.92,28.37,31.21,5.92,31.08,1002.46,2036.99,3027.10,2983.73,3229.12,349.94,320.56,16.96,0000 0000 0000 0000 000000
2014-04-06 01:34:20,0.10,1.16,0.00,21.94,28.37,31.21,6.03,31.04,1002.46,2036.99,3027.02,2983.38,3229.05,349.37,320.03,16.97,0000 0000 0000 0000 000000
2014-04-06 01:35:20,0.11,1.16,0.00,21.93,28.38,31.21,5.93,31.04,1002.43,2036.99,3026.83,2983.15,3229.00,349.48,320.13,16.97,0000 0000 0000 0000 000000
2014-04-06 01:36:20,0.09,1.16,0.00,21.94,28.38,31.21,6.01,30.96,1002.40,2036.99,3026.40,2983.05,3228.82,350.48,321.03,16.98,0000 0000 0000 0000 000000
2014-04-06 01:37:21,0.11,1.16,0.00,21.94,28.38,31.21,6.06,31.00,1002.42,2036.99,3026.16,2983.01,3228.41,350.12,320.69,16.98,0000 0000 0000 0000 000000
2014-04-06 01:38:21,0.10,1.17,0.00,21.93,28.37,31.24,6.06,31.08,1002.43,2036.99,3026.05,2982.97,3228.15,349.79,320.01,16.99,0000 0000 0000 0000 000000
2014-04-06 01:39:21,0.06,1.17,0.00,21.94,28.37,31.21,6.08,31.04,1002.33,2036.99,3025.99,2982.86,3228.05,350.84,321.42,17.00,0000 0000 0000 0000 000000
2014-04-06 01:40:22,0.05,1.17,0.00,21.94,28.37,31.22,5.88,30.96,1002.37,2036.99,3025.83,2982.49,3228.02,349.44,320.05,17.00,0000 0000 0000 0000 000000
2014-04-06 01:41:22,0.11,1.17,0.00,21.95,28.38,31.21,6.15,31.00,1002.39,2036.99,3025.40,2982.20,3227.95,350.59,321.08,17.01,0000 0000 0000 0000 000000
2014-04-06 01:42:22,0.15,1.17,0.00,21.95,28.38,31.22,5.80,31.04,1002.36,2036.99,3025.15,2982.07,3227.69,350.00,320.56,17.01,0000 0000 0000 0000 000000
2014-04-06 01:43:22,0.11,1.17,0.00,21.96,28.38,31.22,6.05,30.96,1002.31,2036.99,3025.05,2982.01,3227.31,350.61,321.10,17.02,0000 0000 0000 0000 000000
2014-04-06 01:44:23,0.07,1.17,0.00,21.96,28.38,31.23,6.09,31.08,1002.28,2036.99,3024.99,2981.99,3227.12,349.81,320.35,17.03,0000 0000 0000 0000 000000
2014-04-06 01:45:23,0.05,1.17,0.00,21.95,28.38,31.21,6.17,31.13,1002.33,2036.99,3024.68,2981.76,3227.04,350.95,321.42,17.03,0000 0000 0000 0000 000000
2014-04-06 01:46:23,0.11,1.17,0.00,21.95,28.38,31.23,6.01,30.83,1002.38,2036.99,3024.31,2981.36,3227.00,350.22,320.77,17.04,0000 0000 0000 0000 000000
2014-04-06 01:47:23,0.16,1.17,0.00,21.95,28.38,31.23,5.79,31.00,1002.26,2036.99,3024.11,2981.14,3226.85,349.26,320.01,17.04,0000 0000 0000 0000 000000
2014-04-06 01:48:24,0.10,1.17,0.00,21.97,28.39,31.22,6.05,31.13,1002.30,2036.99,3024.04,2981.05,3226.58,349.51,319.93,17.05,0000 0000 0000 0000 000000
2014-04-06 01:49:24,0.07,1.17,0.00,21.96,28.39,31.21,5.91,30.88,1002.25,2036.99,3023.99,2981.02,3226.25,350.38,320.85,17.05,0000 0000 0000 0000 000000
2014-04-06 01:50:24,0.07,1.17,0.00,21.96,28.39,31.22,6.07,30.96,1002.27,2036.99,3023.57,2980.96,3226.09,350.29,320.79,17.06,0000 0000 0000 0000 000000
2014-04-06 01:51:24,0.09,1.17,0.00,21.97,28.39,31.23,6.16,31.00,1002.17,2036.99,3023.24,2980.85,3226.03,349.92,320.41,17.07,0000 0000 0000 0000 000000
2014-04-06 01:52:25,0.09,1.17,0.00,21.96,28.39,31.21,5.91,31.08,1002.28,2036.99,3023.08,2980.49,3226.00,350.55,321.02,17.07,0000 0000 0000 0000 000000
2014-04-06 01:53:25,0.11,1.17,0.00,21.97,28.39,31.20,6.12,30.92,1002.26,2036.99,3023.02,2980.20,3225.79,349.85,320.37,17.08,0000 0000 0000 0000 000000
2014-04-06 01:54:25,0.11,1.17,0.00,21.97,28.39,31.22,5.85,31.04,1002.22,2036.99,3022.77,2980.08,3225.40,349.11,319.67,17.08,0000 0000 0000 0000 000000
2014-04-06 01:55:26,0.11,1.18,0.00,21.97,28.40,31.22,6.07,31.13,1002.41,2036.99,3022.34,2980.01,3225.18,350.55,321.10,17.09,0000 0000 0000 0000 000000
2014-04-06 01:56:26,0.10,1.18,0.00,21.97,28.39,31.23,6.06,31.17,1002.41,2036.99,3022.13,2979.98,3225.06,349.43,319.86,17.10,0000 0000 0000 0000 000000
2014-04-06 01:57:26,0.05,1.18,0.00,21.97,28.39,31.24,6.02,30.83,1002.39,2036.99,3022.04,2979.86,3225.02,350.19,320.72,17.10,0000 0000 0000 0000 000000
2014-04-06 01:58:27,0.06,1.18,0.00,21.98,28.40,31.25,5.95,30.96,1002.43,2036.99,3021.97,2979.48,3224.88,350.19,320.72,17.11,0000 0000 0000 0000 000000
2014-04-06 01:59:27,0.14,1.18,0.00,21.98,28.40,31.22,6.03,31.08,1002.39,2036.99,3021.54,2979.19,3224.48,350.58,321.06,17.11,0000 0000 0000 0000 000000
2014-04-06 02:00:27,0.17,1.18,0.00,21.97,28.39,31.23,5.93,30.88,1002.25,2036.99,3021.20,2979.06,3224.17,349.69,319.92,17.12,0000 0000 0000 0000 000000
2014-04-06 02:01:27,0.11,1.18,0.00,21.97,28.40,31.25,5.95,31.13,1002.21,2036.99,3021.07,2979.00,3224.06,349.97,320.27,17.13,0000 0000 0000 0000 000000
2014-04-06 02:02:28,0.05,1.18,0.00,21.96,28.40,31.23,5.98,31.13,1002.21,2036.99,3020.86,2978.81,3223.96,349.99,320.49,17.13,0000 0000 0000 0000 000000
2014-04-06 02:03:28,0.11,1.18,0.00,21.97,28.40,31.22,5.88,31.08,1002.07,2036.99,3020.39,2978.38,3223.58,349.99,320.26,17.14,0000 0000 0000 0000 000000
2014-04-06 02:04:28,0.22,1.18,0.00,21.97,28.40,31.22,6.00,31.04,1002.02,2036.99,3020.15,2978.14,3223.27,349.67,320.01,17.14,0000 0000 0000 0000 000000
2014-04-06 02:05:29,0.13,1.18,0.00,21.97,28.40,31.22,6.02,31.04,1002.00,2036.99,3020.05,2978.05,3223.13,349.83,320.33,17.15,0000 0000 0000 0000 000000
2014-04-06 02:06:29,0.05,1.18,0.00,21.97,28.40,31.23,5.97,31.04,1001.98,2036.99,3020.01,2978.01,3223.05,349.27,319.56,17.15,0000 0000 0000 0000 000000
2014-04-06 02:07:29,0.03,1.18,0.00,21.97,28.40,31.23,6.02,31.04,1001.98,2036.99,3019.81,2977.98,3222.97,350.61,320.76,17.16,0000 0000 0000 0000 000000
2014-04-06 02:08:29,0.05,1.18,0.00,21.97,28.40,31.22,6.00,31.04,1001.99,2036.99,3019.40,2977.81,3222.80,349.65,320.10,17.17,0000 0000 0000 0000 000000
2014-04-06 02:09:30,0.13,1.18,0.00,21.97,28.40,31.23,5.90,31.04,1001.99,2036.99,3019.14,2977.38,3222.37,349.76,320.20,17.17,0000 0000 0000 0000 000000
2014-04-06 02:10:30,0.20,1.18,0.00,21.97,28.40,31.25,6.01,30.96,1001.97,2036.99,3019.05,2977.15,3222.13,349.97,320.69,17.18,0000 0000 0000 0000 000000
2014-04-06 02:11:30,0.10,1.19,0.00,21.97,28.40,31.24,5.90,30.96,1001.97,2036.99,3018.94,2977.05,3222.05,349.78,320.21,17.18,0000 0000 0000 0000 000000
2014-04-06 02:12:31,0.05,1.19,0.00,21.97,28.40,31.24,5.93,30.96,1001.97,2036.99,3018.56,2977.02,3222.01,349.95,320.09,17.19,0000 0000 0000 0000 000000
2014-04-06 02:13:31,0.06,1.19,0.00,21.97,28.40,31.24,6.03,31.00,1001.99,2036.99,3018.21,2976.99,3221.88,349.88,320.89,17.20,0000 0000 0000 0000 000000
2014-04-06 02:14:31,0.08,1.19,0.00,21.97,28.40,31.21,5.87,31.04,1001.98,2036.99,3018.08,2976.84,3221.48,349.57,320.02,17.20,0000 0000 0000 0000 000000
2014-04-06 02:15:32,0.11,1.19,0.00,21.97,28.40,31.19,6.02,30.71,1001.97,2036.99,3018.03,2976.54,3221.20,350.19,320.58,17.21,0000 0000 0000 0000 000000
2014-04-06 02:16:32,0.12,1.19,0.00,21.99,28.40,31.22,6.23,31.08,1001.98,2036.99,3017.91,2976.23,3221.08,350.66,320.72,17.21,0000 0000 0000 0000 000000
2014-04-06 02:17:32,0.11,1.19,0.00,21.99,28.40,31.25,5.83,31.08,1001.97,2036.99,3017.55,2976.08,3221.03,349.71,320.13,17.22,0000 0000 0000 0000 000000
2014-04-06 02:18:32,0.09,1.19,0.00,21.99,28.40,31.24,6.07,31.08,1001.97,2036.99,3017.23,2976.03,3221.01,350.29,320.65,17.22,0000 0000 0000 0000 000000
2014-04-06 02:19:33,0.06,1.19,0.00,22.00,28.40,31.23,6.02,31.13,1001.97,2037.00,3017.08,2975.99,3220.86,350.16,320.35,17.23,0000 0000 0000 0000 000000
2014-04-06 02:20:33,0.06,1.19,0.00,21.99,28.40,31.23,5.87,30.88,1001.97,2037.00,3017.02,2975.90,3220.41,349.41,319.85,17.24,0000 0000 0000 0000 000000
2014-04-06 02:21:33,0.11,1.19,0.00,21.99,28.40,31.24,5.94,30.88,1001.97,2037.00,3016.85,2975.47,3220.15,349.81,319.95,17.24,0000 0000 0000 0000 000000
2014-04-06 02:22:33,0.16,1.19,0.00,22.00,28.40,31.22,5.91,30.88,1001.97,2037.00,3016.40,2975.18,3220.05,349.03,319.75,17.25,0000 0000 0000 0000 000000
2014-04-06 02:23:34,0.14,1.19,0.00,22.01,28.40,31.23,5.96,31.04,1001.97,2037.00,3016.14,2975.06,3220.02,349.86,320.37,17.25,0000 0000 0000 0000 000000
2014-04-06 02:24:34,0.07,1.19,0.00,22.00,28.40,31.23,5.95,31.04,1001.97,2037.00,3016.04,2975.02,3219.85,350.37,320.72,17.26,0000 0000 0000 0000 000000
2014-04-06 02:25:34,0.04,1.19,0.00,21.99,28.40,31.24,6.03,30.96,1001.97,2037.00,3015.99,2974.98,3219.48,349.16,319.61,17.27,0000 0000 0000 0000 000000
2014-04-06 02:26:35,0.07,1.19,0.00,21.99,28.40,31.21,5.99,31.08,1001.97,2037.00,3015.79,2974.76,3219.21,350.10,320.48,17.27,0000 0000 0000 0000 000000
2014-04-06 02:27:35,0.15,1.20,0.00,21.99,28.40,31.24,6.16,31.13,1001.97,2037.01,3015.35,2974.37,3219.08,350.64,320.79,17.28,0000 0000 0000 0000 000000
2014-04-06 02:28:35,0.16,1.20,0.00,22.00,28.40,31.22,6.05,31.04,1001.97,2037.00,3015.14,2974.15,3219.03,350.70,321.03,17.28,0000 0000 0000 0000 000000
2014-04-06 02:29:35,0.08,1.20,0.00,22.00,28.40,31.25,6.06,31.08,1001.97,2037.00,3015.05,2974.05,3218.99,350.06,320.43,17.29,0000 0000 0000 0000 000000
2014-04-06 02:30:36,0.05,1.20,0.00,22.00,28.40,31.24,5.92,30.96,1001.97,2037.00,3014.91,2974.01,3218.80,349.86,320.35,17.30,0000 0000 0000 0000 000000
2014-04-06 02:31:36,0.07,1.20,0.00,22.01,28.40,31.23,6.02,31.17,1001.97,2037.00,3014.47,2973.96,3218.36,349.71,320.22,17.30,0000 0000 0000 0000 000000
2014-04-06 02:32:36,0.12,1.20,0.00,22.01,28.40,31.24,5.93,31.00,1001.97,2037.00,3014.17,2973.77,3218.13,349.66,320.06,17.31,0000 0000 0000 0000 000000
2014-04-06 02:33:37,0.11,1.20,0.00,22.01,28.40,31.25,6.13,31.21,1001.97,2037.01,3014.07,2973.43,3218.05,350.37,320.69,17.31,0000 0000 0000 0000 000000
2014-04-06 02:34:37,0.10,1.20,0.00,22.00,28.40,31.23,5.90,30.79,1001.96,2037.01,3014.02,2973.19,3218.01,349.34,319.46,17.32,0000 0000 0000 0000 000000
2014-04-06 02:35:37,0.08,1.20,0.00,22.01,28.40,31.25,5.99,30.83,1001.92,2037.02,3013.92,2973.08,3217.96,350.53,320.84,17.32,0000 0000 0000 0000 000000
2014-04-06 02:36:37,0.07,1.20,0.00,22.01,28.41,31.24,5.92,31.00,1001.86,2037.00,3013.53,2973.02,3217.59,350.31,320.61,17.33,0000 0000 0000 0000 000000